Wiscasset, ME

10:45 AM EST on December 13, 2017 (GMT -0500)
Wiscasset

Weather History for KIWI - January, 2014

Change the Weather History Date:

Friday, January 24, 2014

  Actual Average Record
Temperature  
Mean Temperature 7 °F -  
Max Temperature 16 °F 25 °F 54 °F (1999)
Min Temperature -2 °F 7 °F -11 °F (2011)
Degree Days  
Heating Degree Days 58    
Moisture  
Dew Point -6 °F    
Average Humidity 60    
Maximum Humidity 79    
Minimum Humidity 36    
Precipitation  
Precipitation 0.00 in - - ()
Sea Level Pressure  
Sea Level Pressure 30.13 in    
Wind  
Wind Speed 2 mph (West)    
Max Wind Speed 7 mph    
Max Gust Speed -    
Visibility 10 miles    
Events      
Averages and records for this station are not official NWS values.
T = Trace of Precipitation, MM = Missing Value Source: NWS Daily Summary

Daily Weather History Graph

Daily Weather History Graph

Search for Another Location

Airport or City:

Trip Planner

Search our weather history database for the weather conditions in past years. The results will help you decide how hot, cold, wet, or windy it might be!

Date:

Astronomy

Jan. 24, 2014 Rise Set
Actual Time 7:04 AM EST 4:38 PM EST
Civil Twilight 6:32 AM EST 5:09 PM EST
Nautical Twilight 5:57 AM EST 5:44 PM EST
Astronomical Twilight 5:23 AM EST 6:18 PM EST
Moon 12:24 AM EST (1/24) 10:57 AM EST (1/24)
Length of Visible Light 10h 37m
Length of Day
9h 34m
Last Quarter, 45% of the Moon is Illuminated
Jan 24
Last Quarter
Jan 30
New
Feb 6
First Quarter
Feb 14
Full
Feb 22
Last Quarter

Hourly Weather History & Observations

Time (EST) Temp. Windchill Dew Point Humidity Pressure Visibility Wind Dir Wind Speed Gust Speed Precip Events Conditions
12:53 AM 5.0 °F -2.1 °F -5.1 °F 63% 30.08 in 10.0 mi Variable 3.5 mph - N/A   Clear
1:53 AM 3.9 °F - -6.0 °F 64% 30.09 in 10.0 mi Calm Calm - N/A   Clear
2:53 AM -0.0 °F - -5.1 °F 79% 30.12 in 10.0 mi Calm Calm - N/A   Clear
3:53 AM -2.0 °F - -8.0 °F 76% 30.12 in 10.0 mi Calm Calm - N/A   Clear
4:53 AM -2.9 °F - -8.0 °F 79% 30.13 in 10.0 mi Calm Calm - N/A   Clear
5:53 AM -0.9 °F - -9.0 °F 69% 30.14 in 10.0 mi Calm Calm - N/A   Clear
6:53 AM -0.0 °F - -8.0 °F 69% 30.16 in 10.0 mi Calm Calm - N/A   Clear
7:53 AM 1.9 °F - -7.1 °F 66% 30.18 in 10.0 mi Calm Calm - N/A   Clear
8:53 AM 5.0 °F -6.9 °F -8.0 °F 55% 30.19 in 10.0 mi WNW 6.9 mph - N/A   Clear
9:53 AM 8.1 °F -0.5 °F -8.0 °F 48% 30.19 in 10.0 mi Variable 4.6 mph - N/A   Clear
10:53 AM 10.9 °F 1.4 °F -8.0 °F 42% 30.17 in 10.0 mi Variable 5.8 mph - N/A   Clear
11:53 AM 12.9 °F 2.6 °F -7.1 °F 41% 30.14 in 10.0 mi Variable 6.9 mph - N/A   Clear
12:53 PM 15.1 °F 5.2 °F -7.1 °F 37% 30.12 in 10.0 mi Variable 6.9 mph - N/A   Clear
1:53 PM 16.0 °F 10.4 °F -7.1 °F 36% 30.11 in 10.0 mi Variable 3.5 mph - N/A   Clear
2:53 PM 16.0 °F 8.8 °F -7.1 °F 36% 30.11 in 10.0 mi Variable 4.6 mph - N/A   Clear
3:53 PM 15.1 °F 7.7 °F -8.0 °F 36% 30.12 in 10.0 mi Variable 4.6 mph - N/A   Clear
4:53 PM 10.9 °F - -6.0 °F 47% 30.12 in 10.0 mi Calm Calm - N/A   Clear
5:53 PM 6.1 °F - -4.0 °F 63% 30.13 in 10.0 mi Calm Calm - N/A   Clear
6:53 PM 3.0 °F - -5.1 °F 69% 30.14 in 10.0 mi Calm Calm - N/A   Clear
7:53 PM 1.9 °F - -5.1 °F 72% 30.13 in 10.0 mi Calm Calm - N/A   Clear
8:53 PM 1.0 °F - -5.1 °F 75% 30.12 in 10.0 mi Calm Calm - N/A   Clear
9:53 PM 1.0 °F - -5.1 °F 75% 30.10 in 10.0 mi Calm Calm - N/A   Partly Cloudy
10:53 PM 6.1 °F - -0.9 °F 73% 30.07 in 10.0 mi Calm Calm - N/A   Scattered Clouds
11:53 PM 10.9 °F 2.9 °F -0.9 °F 59% 30.03 in 10.0 mi WSW 4.6 mph - N/A   Clear